This is the latest recevied weather packets stored in our database for station/object EA5GTE-12. If no packets are shown the sender has not sent any weather packets the latest 10 day(s).
| Time | Temp. | Humidity | Pressure | Rain* | Wind** | Luminosity | Snow |
|---|---|---|---|---|---|---|---|
| 1787717296 | 21.11° C | 79% | 935.7 hPa | - | - | - | - |
| 1787716396 | 20.56° C | 81% | 935.6 hPa | - | - | - | - |
| 1787715496 | 20.56° C | 81% | 936.8 hPa | - | - | - | - |
| 1787714596 | 20.56° C | 82% | 935.8 hPa | - | - | - | - |
| 1787713695 | 20.56° C | 81% | 936.7 hPa | - | - | - | - |
| 1787712795 | 21.11° C | 79% | 936.5 hPa | - | - | - | - |
| 1787711895 | 21.11° C | 81% | 937.5 hPa | - | - | - | - |
| 1787710995 | 21.11° C | 80% | 936.5 hPa | - | - | - | - |
| 1787710095 | 21.67° C | 78% | 936.2 hPa | - | - | - | - |
| 1787709195 | 21.67° C | 81% | 937.3 hPa | - | - | - | - |
| 1787708295 | 21.11° C | 85% | 936.3 hPa | - | - | - | - |
| 1787707395 | 21.67° C | 88% | 937.1 hPa | - | - | - | - |
| 1787706495 | 21.11° C | 91% | 937.3 hPa | - | - | - | - |
| 1787705595 | 21.11° C | 100% | 937 hPa | - | - | - | - |
| 1787704695 | 20.56° C | 100% | 937.4 hPa | - | - | - | - |
| 1787703794 | 21.11° C | 90% | 937.7 hPa | - | - | - | - |
| 1787702894 | 20° C | 79% | 937.5 hPa | - | - | - | - |
| 1787701994 | 19.44° C | 72% | 938 hPa | - | - | - | - |
| 1787701094 | 19.44° C | 60% | 937.8 hPa | - | - | - | - |
| 1787700194 | 20° C | 56% | 937.5 hPa | - | - | - | - |
| 1787699294 | 20° C | 51% | 937.2 hPa | - | - | - | - |
| 1787698427 | 20° C | 58% | 937.8 hPa | - | - | - | - |
| 1787698393 | 20° C | 58% | 937.8 hPa | - | - | - | - |
| 1787697493 | 21.11° C | 58% | 937.3 hPa | - | - | - | - |
| 1787695695 | 21.67° C | 49% | 937.9 hPa | - | - | - | - |
* Rain since midnight (hover to see other rain measurements)
** Current wind speed in m/s (hover to see current wind gust speed)